Driggs, ID

2:37 PM MST on November 24, 2017 (GMT -0700)
Driggs

Weather History for KDIJ - September, 2012

Change the Weather History Date:

Sunday, September 9, 2012

  Actual Average (KJAC) Record (KJAC)
Temperature  
Mean Temperature 61 °F -  
Max Temperature 81 °F 73 °F 84 °F (1979)
Min Temperature 41 °F 34 °F 18 °F (1962)
Degree Days  
Heating Degree Days 4    
Growing Degree Days 11 (Base 50)    
Moisture  
Dew Point 34 °F    
Average Humidity 40    
Maximum Humidity 70    
Minimum Humidity 14    
Precipitation  
Precipitation 0.00 in - - ()
Sea Level Pressure  
Sea Level Pressure 29.96 in    
Wind  
Wind Speed 6 mph (SE)    
Max Wind Speed 15 mph    
Max Gust Speed -    
Visibility 10 miles    
Events      
Averages and records for this station are not official NWS values.
T = Trace of Precipitation, MM = Missing Value Source: NWS Daily Summary

Daily Weather History Graph

Daily Weather History Graph

Search for Another Location

Airport or City:

Trip Planner

Search our weather history database for the weather conditions in past years. The results will help you decide how hot, cold, wet, or windy it might be!

Date:

Astronomy

Sep. 09, 2012 Rise Set
Actual Time 6:57 AM MDT 7:44 PM MDT
Civil Twilight 6:28 AM MDT 8:13 PM MDT
Nautical Twilight 5:53 AM MDT 8:48 PM MDT
Astronomical Twilight 5:17 AM MDT 9:23 PM MDT
Moon 12:21 AM MDT (9/9) 3:41 PM MDT (9/9)
Length of Visible Light 13h 45m
Length of Day
12h 47m
Last Quarter, 39% of the Moon is Illuminated
Sep 9
Last Quarter
Sep 15
New
Sep 22
First Quarter
Sep 29
Full
Oct 8
Last Quarter

Hourly Weather History & Observations

Time (MDT) Temp. Windchill Dew Point Humidity Pressure Visibility Wind Dir Wind Speed Gust Speed Precip Events Conditions
12:56 AM 50.0 °F - 36.0 °F 59% 30.07 in 10.0 mi Calm Calm - N/A   Clear
1:56 AM 45.0 °F 43.5 °F 34.9 °F 68% 30.07 in 10.0 mi NE 3.5 mph - N/A   Clear
2:56 AM 45.0 °F 40.6 °F 34.9 °F 68% 30.05 in 10.0 mi East 8.1 mph - N/A   Clear
3:56 AM 43.9 °F 40.5 °F 32.9 °F 65% 30.04 in 10.0 mi NE 5.8 mph - N/A   Clear
4:56 AM 45.9 °F 42.3 °F 32.0 °F 58% 30.03 in 10.0 mi East 6.9 mph - N/A   Clear
5:56 AM 43.0 °F 39.5 °F 32.0 °F 65% 30.04 in 10.0 mi Variable 5.8 mph - N/A   Clear
6:56 AM 41.0 °F 39.0 °F 32.0 °F 70% 30.06 in 10.0 mi ENE 3.5 mph - N/A   Clear
8:56 AM 61.9 °F - 37.9 °F 41% 30.04 in 10.0 mi ESE 4.6 mph - N/A   Clear
9:56 AM 70.0 °F - 31.1 °F 24% 30.01 in 10.0 mi Calm Calm - N/A   Clear
10:56 AM 73.9 °F - 31.1 °F 21% 30.00 in 10.0 mi SSW 11.5 mph - N/A   Clear
11:56 AM 75.9 °F - 26.1 °F 16% 29.98 in 10.0 mi SSW 11.5 mph - N/A   Clear
12:56 PM 77.9 °F - 27.1 °F 15% 29.96 in 10.0 mi SSW 13.8 mph - N/A   Clear
1:56 PM 79.9 °F - 28.0 °F 15% 29.95 in 10.0 mi South 15.0 mph - N/A   Clear
2:56 PM 81.0 °F - 28.0 °F 14% 29.92 in 10.0 mi South 6.9 mph - N/A   Clear
3:56 PM 81.9 °F - 29.1 °F 15% 29.90 in 10.0 mi SW 11.5 mph - N/A   Clear
4:56 PM 73.9 °F - 36.0 °F 25% 29.92 in 10.0 mi NW 6.9 mph - N/A   Clear
5:56 PM 72.9 °F - 36.0 °F 26% 29.92 in 10.0 mi East 4.6 mph - N/A   Mostly Cloudy
6:56 PM 72.0 °F - 38.8 °F 30% 29.90 in 10.0 mi SE 4.6 mph - N/A   Clear
7:56 PM 65.8 °F - 38.8 °F 37% 29.90 in 10.0 mi East 4.6 mph - N/A   Clear
8:56 PM 61.0 °F - 37.9 °F 42% 29.86 in 10.0 mi SSE 5.8 mph - N/A   Clear
9:56 PM 56.8 °F - 37.9 °F 49% 29.86 in 10.0 mi SSE 9.2 mph - N/A   Clear
10:56 PM 56.8 °F - 38.8 °F 51% 29.84 in 10.0 mi SSE 8.1 mph - N/A   Clear
11:56 PM 57.9 °F - 38.8 °F 49% 29.83 in 10.0 mi South 8.1 mph - N/A   Clear